www.pogodaiklimat.ru

Погода и климат >> Архив погоды >> Буркина-Фасо >> Dedougou


ПОГОДА в Dedougou

  • Прогноз погоды в Dedougou
  • Монитор погоды в Dedougou
  • Климат города

АРХИВ ПОГОДЫ в Dedougou

Время (UTC), дата Ветер
(напр.,м/с)
 
Видим.   Явления Облачность Т
(С)
Тd
(С)
f
(%)
Тe
(С)
Тes
(С)
Комфортность P
(гПа)
Po
(гПа)
Тmin
(С)
Tmax
(С)
R
(мм)
R24
(мм)
S
(см)
06 12.08 штиль 0 15 км 9/0
[Ci sp]
+24.5 +23.8 96 +33 +33 очень
душно
1012.1 978.6 +24.0 0.3
09 12.08 СЗ 2 15 км 8/0
[Ci sp]
+27.2 +23.9 82 +37 +46 очень
душно
1013.5 979.9
12 12.08 Ю 1 15 км 9/1 600 м
[Cu Sc Ci sp]
+30.6 +23.4 65 +41 +60 опасность
перегрева
1013.2 979.8
15 12.08 Ю 2 15 км 9/3 600 м
[Cu Sc Ac trans Ci sp]
+32.3 +22.6 57 +42 +47 опасность
перегрева
1010.8 977.4
18 12.08 ЮЗ 1 15 км 9/1 600 м
[Sc Ac trans Ci sp]
+30.5 +24.9 72 +44 +44 опасность
перегрева
1010.5 977.0 +33.0
21 12.08 ЮЗ 1 10 км 9/0
[Ac trans Ci sp]
+29.0 +26.2 85 +44 +44 опасность
перегрева
1011.5 978.1
00 13.08 ЮЗ 1 10 км 9/0
[Ac trans Ci sp]
+27.5 +25.6 89 +40 +40 очень
душно
1011.5 978.2
03 13.08 ЮЗ 1 10 км 9/0
[Ac trans Ci sp]
+25.5 +23.3 88 +34 +34 очень
душно
1011.4 978.1
06 13.08 В 3 15 км гроза, ливневой дождь 9/1 1200 м
[Cb cap Ac As]
+23.2 +22.2 94 +32 +32 очень
душно
1012.3 978.7 +22.8 3
09 13.08 ЮЗ 1 15 км в посл. час дождь {гроза} 9/0
[Ac As Ci sp]
+24.0 +23.3 96 +32 +37 очень
душно
1011.5 977.9
12 13.08 Ю 1 15 км {гроза, дождь} 9/0
[Ac trans Ci sp]
+29.6 +23.9 71 +41 +58 опасность
перегрева
1010.4 977.0 3
15 13.08 З 1 15 км 9/0
[Ac As Ci sp]
+30.0 +24.4 72 +42 +48 опасность
перегрева
1009.5 976.1
18 13.08 штиль 0 15 км 9/0
[Ac trans Ci sp]
+29.0 +24.2 75 +40 +41 очень
душно
1009.7 976.1 +30.8 3
21 13.08 штиль 0 10 км 9/0
[Ac trans Ci sp]
+27.0 +25.5 92 +40 +40 очень
душно
1010.5 976.9
00 14.08 штиль 0 10 км 8/0
[Ci sp]
+25.7 +24.3 92 +36 +36 очень
душно
1010.8 977.4
03 14.08 штиль 0 10 км 8/0
[Ci sp]
+25.0 +24.3 96 +35 +35 очень
душно
1009.4 976.0
06 14.08 штиль 0 15 км 8/0
[Ci sp]
+24.5 +23.8 96 +33 +33 очень
душно
1009.5 976.0 +24.5 3
09 14.08 ЮЗ 2 15 км 9/0
[Ci sp]
+27.7 +24.6 83 +39 +47 очень
душно
1010.7 977.2
12 14.08 З 2 15 км 9/4 600 м
[Cu Sc Ci sp]
+31.7 +25.2 69 +46 +57 опасность
перегрева
1010.7 977.4
15 14.08 ЮЗ 2 15 км 9/4 600 м
[Cu Sc Ci sp]
+33.5 +24.1 58 +45 +52 опасность
перегрева
1008.8 975.6
21 14.08 ЮВ 4 10 км зарница 9/1 1200 м
[Cb cap Ci sp]
+27.5 +24.0 81 +38 +38 очень
душно
1010.4 976.9
03 15.08 ЮЗ 2 10 км 9/0
[Ac As Ci sp]
+24.0 +21.0 83 +30 +30 очень
душно
1009.7 976.4
09 15.08 Ю 1 15 км 9/1 600 м
[Cu Sc Ac As Ci sp]
+25.0 +21.5 81 +32 +38 очень
душно
1013.1 979.4
15 15.08 ЮВ 2 15 км 9/1 600 м
[Cu Sc Ac As Ci sp]
+28.0 +22.8 73 +37 +43 очень
душно
1011.0 977.3
21 15.08 ЮВ 1 10 км 9/1 600 м
[Sc Ci sp]
+26.5 +23.6 84 +36 +36 очень
душно
1012.1 978.4
03 16.08 штиль 0 10 км 9/0
[Ci sp]
+24.0 +23.3 96 +32 +32 очень
душно
1012.2 978.5
06 16.08 штиль 0 15 км 9/0
[Ci sp]
+23.5 +22.8 96 +31 +31 очень
душно
1012.2 978.6 +23.3
09 16.08 ЮЗ 3 15 км 9/1 600 м
[Sc Ci sp]
+26.3 +22.8 81 +35 +41 очень
душно
1013.7 980.0
12 16.08 СЗ 2 15 км 9/1 600 м
[Cu Sc Ci sp]
+29.7 +22.8 67 +40 +56 опасность
солнечного
удара
1012.7 979.1
15 16.08 СЗ 2 15 км 9/1 600 м
[Cu Sc Ci sp]
+32.0 +23.5 61 +43 +52 опасность
перегрева
1010.0 976.6
18 16.08 З 2 15 км 9/1 600 м
[Sc Ci sp]
+31.3 +23.8 64 +42 +43 опасность
перегрева
1010.0 976.5 +32.6
21 16.08 З 1 10 км 9/0
[Ci sp]
+28.5 +24.4 79 +40 +40 очень
душно
1010.8 977.4
00 17.08 ЮЗ 2 10 км 9/0
[Ci sp]
+27.1 +24.4 85 +38 +38 очень
душно
1010.8 977.4
03 17.08 ЮЗ 3 10 км 9/0
[Ci sp]
+26.3 +23.7 86 +36 +36 очень
душно
1009.0 975.8
06 17.08 ЮЗ 2 15 км в посл. час гроза {дождь} 9/1 1200 м
[Cb cap Ci sp]
+25.2 +24.2 94 +35 +35 очень
душно
1008.9 975.6 +25.0 2
09 17.08 З 3 15 км 9/1 600 м
[Sc Ci sp]
+28.0 +24.8 83 +40 +46 очень
душно
1009.9 976.5
12 17.08 З 4 15 км 9/1 600 м
[Cu Sc Ci sp]
+31.7 +23.7 63 +43 +54 опасность
перегрева
1008.2 975.1
15 17.08 З 4 15 км 9/3 600 м
[Cu Sc Ci sp]
+33.0 +23.9 59 +45 +50 опасность
перегрева
1006.1 973.0
18 17.08 З 2 15 км 9/1 600 м
[Cu Sc Ac trans Ci sp]
+31.9 +25.1 67 +45 +46 опасность
перегрева
1005.9 972.7 +33.7
21 17.08 З 3 10 км 9/0
[Ci sp]
+29.1 +25.1 79 +42 +42 опасность
перегрева
1005.5 972.4
00 18.08 ЮЗ 3 10 км зарница 9/1 1200 м
[Cb cap Ac trans Ci sp]
+28.5 +25.0 81 +41 +41 опасность
перегрева
1006.7 973.6
03 18.08 ЮЗ 4 10 км 9/0
[Ci sp]
+25.4 +21.9 81 +33 +33 очень
душно
1004.9 971.8
06 18.08 Ю 1 15 км 9/3 600 м
[Sc Ci sp]
+23.5 +20.6 84 +29 +29 душно 1005.8 972.5 +23.4
09 18.08 Ю 3 15 км 9/1 600 м
[Sc Ac As Ci sp]
+25.5 +21.0 76 +32 +36 очень
душно
1007.7 974.3
12 18.08 Ю 2 15 км 9/1 600 м
[Cb cap Ac As Ci sp]
+28.1 +20.5 63 +35 +46 очень
душно
1008.3 975.0
15 18.08 ЮЗ 1 15 км слабый ливневой дождь, в посл. час гроза 10/1 600 м
[Cb cap Ac As]
+21.5 +20.7 95 +27 +31 душно 1006.8 973.0
18 18.08 штиль 0 15 км {гроза, дождь} 9/0
[Ac As Ci sp]
+23.9 +21.8 88 +31 +31 очень
душно
1007.3 973.6 +29.5 18
21 18.08 штиль 0 10 км 9/0
[Ac As Ci sp]
+23.0 +21.8 93 +31 +31 очень
душно
1009.6 975.9
00 19.08 штиль 0 10 км в посл. час дождь 9/0
[Ac As Ci sp]
+23.0 +22.3 96 +31 +31 очень
душно
1010.1 976.4 0.2

 

Местоположение метеостанции Dedougou (Буркина-Фасо): широта 12.47 долгота -3.48 высота над уровнем моря 300 м.

В архиве по умолчанию представлена погода в Dedougou за последнюю неделю. Архивные данные за месяц целиком и за предыдущие месяцы, начиная с января 2011 года, Вы можете получить, выбрав интересующий диапазон дат из раскрывающегося списка и нажав кнопку "Ввод!".

Внимание! Время в таблицах - всемирное. Для получения местного времени необходимо прибавить поправку, которая в Dedougou равна 0 ч.

Смотрите также архив погоды в соседних городах и на ближайших метеорологических станциях:

Погода в Boromo (Буркина-Фасо) (100 км)
Погода в Ouahigouya (Буркина-Фасо) (168 км)
Погода в Bobo-Dioulasso (Буркина-Фасо) (171 км)
Погода в San (Мали) (175 км)
Погода в Ouagadougou (Буркина-Фасо) (213 км)
Погода в Koutiala (Мали) (216 км)
Погода в Mopti (Мали) (238 км)
Погода в Gaoua (Буркина-Фасо) (240 км)
Погода в Sikasso (Мали) (270 км)
Погода в Wa (Гана) (290 км)

Пояснения к столбцам:

Ветер - указаны скорость ветра в м/с - средняя за 10 мин, порывы в срок и между сроками (в фигурных скобках) и направление, откуда дует ветер: С - северный, СВ - северо-восточный, В - восточный, ЮВ - юго-восточный, Ю - южный, ЮЗ - юго-западный, З - западный, СЗ - северо-западный.
Видимость - горизонтальная дальность видимости в метрах или километрах. При видимости от 1 до 10 км при отсутствии осадков обычно наблюдается дымка, при ухудшении видимости до 1 км и менее - туман. В сухую погоду видимость может ухудшаться дымом, пылью или мглою.
Явления - указаны атмосферные явления, наблюдавшиеся в срок или в последний час перед сроком; фигурными скобками обозначены явления, наблюдавшиеся между сроками (за 1-3 часа до срока); квадратными скобками обозначены град или гололедные отложения с указанием их диаметра в мм.
Облачность - указаны через наклонную черту общая и нижняя облачность в баллах и высота нижней границы облаков в метрах; квадратными скобками обозначены формы облаков: Ci - перистые, Cs - перисто-слоистые, Cc - перисто-кучевые, Ac - высококучевые, As - высокослоистые, Sc - слоисто-кучевые, Ns - слоисто-дождевые, Cu - кучевые, Cb - кучево-дождевые. Подробнее классификацию облаков см. в Атласе облаков (PDF).
T - Температура воздуха - температура, измеренная на высоте 2 м над землей.
Td - Температура точки росы - температура, при понижении до которой содержащийся в воздухе водяной пар достигнет насыщения.
f - Относительная влажность воздуха - влажноcть воздуха, измеренная на высоте 2 м над землей.
Te - Эффективная температура - температура, которую ощущает одетый по сезону человек в тени. Характеристика душности погоды. При расчете учитывается влияние влажности воздуха и скорости ветра на теплоощущения человека.
Tes - Эффективная температура на солнце - температура, которую ощущает человек, с поправкой на солнечный нагрев. Характеристика знойности погоды. Зависит от высоты солнца над горизонтом, облачности и скорости ветра. Ночью, в пасмурную погоду, а также при ветре 12 м/с и более поправка равна нулю.
P - Атмосферное давление - приведенное к уровню моря атмосферное давление.
Po - Атмосферное давление - измеренное на уровне метеостанции атмосферное давление.
Tmin - Минимальная температура - минимум температуры воздуха на высоте 2 м над землей.
Tmax - Максимальная температура - максимум температуры воздуха на высоте 2 м над землей.
R - Количество осадков - Количество выпавших осадков за период времени, мм. При наведении курсора мыши на число - период времени, за который выпало указанное количество осадков.
R24 - Количество осадков - Количество выпавших осадков за 24 часа, мм.
S - Снежный покров - Высота снежного покрова, см. При наведении курсора мыши на число - состояние снежного покрова и степень покрытия местности в баллах.